Miscellaneous Local Product
Issued by NWS Hastings, NE

Home | Current Version | Previous Version | Text Only | Print | Product List | Glossary Off
Versions: 1 2 3 4 5 6 7 8 9 10 11 12 13 14 15 16 17 18 19 20 21 22 23 24 25 26 27 28 29 30 31 32 33 34 35 36 37 38 39 40 41 42 43 44 45 46 47 48 49 50

823
AXUS43 KGID 161202
MISGRI

GID CWA HOURLY WEATHER ROUNDUP
NATIONAL WEATHER SERVICE HASTINGS NE
700 AM CDT MON OCT 16 2017

NOTE: "FAIR" INDICATES FEW OR NO CLOUDS BELOW 12,000 FEET WITH NO
SIGNIFICANT WEATHER AND/OR OBSTRUCTIONS TO VISIBILITY.

...SOUTH CENTRAL NEBRASKA...

CITY           SKY/WX    TMP DP  RH WIND       PRES   REMARKS
GRAND ISLAND   CLEAR     40  35  83 S6        30.31F
HASTINGS       CLEAR     38  32  79 S3        30.32S
KEARNEY        CLEAR     38  32  79 SW3       30.31F
ORD            CLEAR     30  26  85 CALM      30.28S
YORK           CLEAR     37  36  93 S7        30.33R WCI  32
AURORA         CLEAR     39  32  77 SW3       30.31F
LEXINGTON      CLOUDY    33  30  90 CALM      30.30S
HOLDREGE       CLEAR     40  29  64 S7        30.30F
HEBRON         CLEAR     34  33  95 CALM      30.35S

...NEBRASKA PANHANDLE...

CITY           SKY/WX    TMP DP  RH WIND       PRES   REMARKS
CHADRON        CLOUDY    33  24  69 SW3       30.20S
ALLIANCE       CLOUDY    27  21  78 CALM      30.23F
SCOTTSBLUFF    CLEAR     26  23  88 N5        30.25F WCI  20
SIDNEY         CLOUDY    28  23  81 W7        30.28S HAZE    WCI  21

...WESTERN AND NORTH CENTRAL NEBRASKA...

CITY           SKY/WX    TMP DP  RH WIND       PRES   REMARKS
VALENTINE      CLOUDY    33  27  78 CALM      30.19F
AINSWORTH      CLEAR     40  31  69 SW10      30.22S WCI  34
ONEILL         CLEAR     38  33  81 S6        30.26F WCI  34
BROKEN BOW     CLEAR     31  27  85 CALM      30.26F
IMPERIAL       CLOUDY    31  26  82 SW7       30.30S WCI  24
NORTH PLATTE   CLOUDY    30  28  92 CALM      30.28F
MCCOOK         CLOUDY    34  30  85 W6        30.31S WCI  29

...EASTERN NEBRASKA...

CITY           SKY/WX    TMP DP  RH WIND       PRES   REMARKS
NORFOLK        CLEAR     32  30  92 E3        30.29F
SO SIOUX CITY  CLEAR     33  32  96 SE5       30.31S WCI  29
TEKAMAH        CLEAR     33  31  92 SE3       30.33S
COLUMBUS       CLEAR     29  27  92 CALM      30.32F
ALBION         CLEAR     32  31  96 CALM      30.30S
OMAHA EPPLEY   CLEAR     40  35  83 SE6       30.34R
OFFUTT AFB     CLEAR     32  31  96 CALM      30.34R FOG
MILLARD        CLEAR     37  37  97 CALM      30.34S
LINCOLN        CLEAR     37  34  89 CALM      30.35S
NEBRASKA CITY  CLEAR     42  36  79 SW6       30.35R
BEATRICE       CLEAR     37  36  93 CALM      30.35S
FALLS CITY     CLEAR     35  34  96 CALM      30.37R

...NORTHERN KANSAS...

CITY           SKY/WX    TMP DP  RH WIND       PRES   REMARKS
GOODLAND       CLOUDY    38  29  70 S3        30.31S
HILL CITY      CLEAR     35  32  88 W3        30.35F
NORTON         SUNNY     34  27  75 SW6       30.31F WCI  29
PHILLIPSBURG   CLEAR     37  32  81 CALM      30.34S
SMITH CENTER   CLEAR     34  30  86 S3        30.35S
HAYS           CLEAR     37  33  85 CALM      30.37F
RUSSELL        CLEAR     38  35  89 SW8       30.36S WCI  32
CONCORDIA      CLEAR     40  35  83 S3        30.36R
SALINA         CLEAR     41  38  89 SE5       30.38S
TOPEKA         CLEAR     37  37 100 CALM      30.40R



USA.gov is the U.S. government's official web portal to all federal, state and local government web resources and services.